Location: Les Jeannots
(43.2262°N, 5.5774°E)
Time: 02:42:43
(UTC+00:00)

SL-08 R/B - Pass Details

Date: 05 July 2020
Orbit: 949 x 1019 km, 82.9° (Epoch: 04 August)

Event Time Altitude Azimuth Distance (km) Brightness Sun altitude
Exits shadow 23:46:44 51° 186° (S) 1,258 4.6 -24.1°
Maximum altitude 23:48:32 90° 96° (E) 1,022 4.5 -24.1°
Drops below altitude 10° 23:55:00 10° 8° (N) 2,793 8.0 -24.1°
Sets 23:57:31 0° 9° (N) 3,739 9.0 -24.0°
